KC9EGS Weather Reports


Display with metric or nautical units.
time (UTC)temp
F
wind
direction
speed
MPH
gust
MPH
rain 1hr
in
rain 24hr
in
rain mn
in
humidity
%
barometer
mb
20260507202528 48 243 0.0 9.0 0.00 0.00 0.00 33 1005.6
20260507201651 48 244 2.0 9.0 0.00 0.00 0.00 31 1005.6
20260507201528 48 250 3.0 9.0 0.00 0.00 0.00 32 1005.6
20260507200528 48 246 0.0 9.0 0.00 0.00 0.00 35 1006.0
20260507200150 48 236 5.0 9.0 0.00 0.00 0.00 34 1006.0
20260507194649 48 219 0.0 10.0 0.00 0.00 0.00 37 1006.0
20260507194527 48 226 1.0 10.0 0.00 0.00 0.00 40 1006.0
20260507193528 48 236 0.0 10.0 0.00 0.00 0.00 38 1006.1
20260507193149 48 222 0.0 10.0 0.00 0.00 0.00 37 1006.1
20260507192526 47 248 6.0 10.0 0.00 0.00 0.00 38 1006.2
20260507191650 47 239 0.0 10.0 0.00 0.00 0.00 40 1006.2
20260507191528 47 239 3.0 10.0 0.00 0.00 0.00 39 1006.2
20260507190529 46 257 0.0 10.0 0.00 0.00 0.00 38 1006.2
20260507190150 46 268 0.0 10.0 0.00 0.00 0.00 38 1006.2
20260507185529 46 212 0.0 8.0 0.00 0.00 0.00 41 1006.5
20260507184650 46 237 0.0 8.0 0.00 0.00 0.00 41 1006.5
20260507184528 45 237 0.0 8.0 0.00 0.00 0.00 42 1006.5
20260507183527 45 239 2.0 8.0 0.00 0.00 0.00 42 1006.7
20260507183150 45 247 8.0 8.0 0.00 0.00 0.00 42 1006.7
20260507182529 45 251 2.0 8.0 0.00 0.00 0.00 41 1006.7
20260507181650 45 236 1.0 8.0 0.00 0.00 0.00 43 1006.7
20260507181529 45 236 7.0 8.0 0.00 0.00 0.00 43 1006.7
20260507180150 45 239 2.0 8.0 0.00 0.00 0.00 48 1006.7
20260507175528 45 234 1.0 10.0 0.00 0.00 0.00 49 1006.7
20260507174650 45 248 0.0 10.0 0.00 0.00 0.00 45 1006.7
20260507174527 45 248 0.0 10.0 0.00 0.00 0.00 43 1006.7
20260507173526 45 226 0.0 10.0 0.00 0.00 0.00 41 1006.9
20260507173149 44 226 6.0 10.0 0.00 0.00 0.00 46 1006.9
20260507171649 43 0 0.0 10.0 0.00 0.00 0.00 55 1007.3
20260507171526 43 0 0.0 10.0 0.00 0.00 0.00 55 1007.3
20260507170528 43 240 1.0 10.0 0.00 0.00 0.00 48 1007.2
20260507170150 43 250 10.0 10.0 0.00 0.00 0.00 49 1007.2
20260507165528 43 256 5.0 12.0 0.00 0.00 0.00 54 1007.2
20260507164650 43 230 0.0 12.0 0.00 0.00 0.00 54 1007.2
20260507164527 43 247 1.0 12.0 0.00 0.00 0.00 54 1007.2
20260507163526 42 246 3.0 12.0 0.00 0.00 0.00 52 1007.5
20260507163149 43 241 3.0 12.0 0.00 0.00 0.00 54 1007.5
20260507162527 43 248 2.0 12.0 0.00 0.00 0.00 51 1007.6
20260507161650 44 246 0.0 12.0 0.00 0.00 0.00 48 1007.6
20260507161527 44 247 2.0 12.0 0.00 0.00 0.00 48 1007.6
20260507160528 44 239 5.0 12.0 0.00 0.00 0.00 49 1007.7
20260507160149 44 250 4.0 12.0 0.00 0.00 0.00 53 1007.7
20260507155528 43 232 0.0 9.0 0.00 0.00 0.00 54 1007.9
20260507154649 42 274 0.0 9.0 0.00 0.00 0.00 56 1007.9
20260507154527 42 244 0.0 9.0 0.00 0.00 0.00 54 1007.9
20260507153527 42 253 1.0 9.0 0.00 0.00 0.00 53 1008.0
20260507153149 42 258 0.0 9.0 0.00 0.00 0.00 53 1008.0
20260507152529 41 246 0.0 9.0 0.00 0.00 0.00 54 1008.0
20260507151649 41 241 5.0 9.0 0.00 0.00 0.00 56 1008.0
20260507151526 41 213 2.0 9.0 0.00 0.00 0.00 55 1008.0
20260507150527 41 244 5.0 9.0 0.00 0.00 0.00 55 1008.0
20260507150150 41 260 6.0 9.0 0.00 0.00 0.00 55 1008.0
20260507144651 41 244 0.0 6.0 0.00 0.00 0.00 54 1008.1
20260507144526 41 244 0.0 6.0 0.00 0.00 0.00 54 1008.1
20260507143150 41 239 1.0 6.0 0.00 0.00 0.00 59 1008.1
20260507142529 41 239 0.0 6.0 0.00 0.00 0.00 56 1008.3
20260507141649 41 253 0.0 6.0 0.00 0.00 0.00 60 1008.3
20260507141527 40 253 5.0 6.0 0.00 0.00 0.00 59 1008.3
20260507140526 40 256 5.0 6.0 0.00 0.00 0.00 62 1008.4
20260507140150 40 256 0.0 6.0 0.00 0.00 0.00 65 1008.4
20260507135528 39 256 0.0 7.0 0.00 0.00 0.00 64 1008.6
20260507134649 39 260 0.0 7.0 0.00 0.00 0.00 67 1008.6
20260507134527 39 260 0.0 7.0 0.00 0.00 0.00 67 1008.6
20260507133529 38 260 0.0 7.0 0.00 0.00 0.00 68 1008.6
20260507133149 38 260 0.0 7.0 0.00 0.00 0.00 67 1008.6
20260507131650 38 246 0.0 7.0 0.00 0.00 0.00 69 1008.6
20260507131526 38 246 0.0 7.0 0.00 0.00 0.00 69 1008.6
20260507130526 37 243 0.0 7.0 0.00 0.00 0.00 68 1008.9
20260507130149 37 243 2.0 7.0 0.00 0.00 0.00 67 1008.9
20260507124649 37 251 0.0 4.0 0.00 0.00 0.00 69 1008.8
20260507123150 37 236 0.0 4.0 0.00 0.00 0.00 69 1008.7
20260507122528 37 239 0.0 4.0 0.00 0.00 0.00 69 1008.7
20260507121650 37 243 0.0 4.0 0.00 0.00 0.00 69 1008.7
20260507120527 37 243 0.0 4.0 0.00 0.00 0.00 71 1008.6
20260507120150 37 243 0.0 4.0 0.00 0.00 0.00 70 1008.6
20260507114650 37 243 0.0 5.0 0.00 0.00 0.00 70 1008.6
20260507114527 36 243 0.0 5.0 0.00 0.00 0.00 70 1008.6
20260507113527 36 215 0.0 5.0 0.00 0.00 0.00 70 1008.5
20260507113149 36 215 0.0 5.0 0.00 0.00 0.00 70 1008.5
20260507111650 36 224 0.0 5.0 0.00 0.00 0.00 69 1008.3
20260507111526 36 205 0.0 5.0 0.00 0.00 0.00 69 1008.3
20260507110525 36 224 0.0 5.0 0.00 0.00 0.00 69 1008.3
20260507110150 36 226 0.0 5.0 0.00 0.00 0.00 69 1008.3
20260507105528 37 229 0.0 6.0 0.00 0.00 0.00 68 1008.1
20260507104649 37 229 0.0 6.0 0.00 0.00 0.00 67 1008.1
20260507104526 37 233 0.0 6.0 0.00 0.00 0.00 67 1008.1
20260507103528 37 237 0.0 6.0 0.00 0.00 0.00 67 1008.3
20260507103149 37 244 0.0 6.0 0.00 0.00 0.00 67 1008.3
20260507102528 37 246 0.0 6.0 0.00 0.00 0.00 67 1008.3
20260507101649 37 248 0.0 6.0 0.00 0.00 0.00 68 1008.3
20260507101527 37 248 0.0 6.0 0.00 0.00 0.00 68 1008.3
20260507100526 37 247 0.0 6.0 0.00 0.00 0.00 67 1008.2
20260507100150 37 247 0.0 6.0 0.00 0.00 0.00 66 1008.2
20260507095528 37 247 0.0 7.0 0.00 0.00 0.00 66 1008.2
20260507094649 37 248 0.0 7.0 0.00 0.00 0.00 66 1008.2
20260507094527 37 248 3.0 7.0 0.00 0.00 0.00 66 1008.2
20260507093526 37 250 0.0 7.0 0.00 0.00 0.00 66 1008.2
20260507093150 37 250 0.0 7.0 0.00 0.00 0.00 66 1008.2
20260507091650 37 248 0.0 7.0 0.00 0.00 0.00 66 1008.3
20260507091526 37 248 0.0 7.0 0.00 0.00 0.00 65 1008.3
20260507090526 37 248 0.0 7.0 0.00 0.00 0.00 65 1008.3
20260507090148 37 248 0.0 7.0 0.00 0.00 0.00 64 1008.3
20260507084648 37 248 0.0 7.0 0.00 0.00 0.00 65 1008.4
20260507083525 37 246 0.0 7.0 0.00 0.00 0.00 64 1008.4
20260507083149 37 241 0.0 7.0 0.00 0.00 0.00 65 1008.4
20260507081650 37 240 0.0 7.0 0.00 0.00 0.00 65 1008.4
20260507080526 37 243 0.0 7.0 0.00 0.00 0.00 65 1008.4
20260507080149 37 243 0.0 7.0 0.00 0.00 0.00 64 1008.4
20260507075526 37 244 0.0 8.0 0.00 0.00 0.00 64 1008.5
20260507074649 37 244 7.0 8.0 0.00 0.00 0.00 64 1008.5
20260507074526 37 240 2.0 8.0 0.00 0.00 0.00 64 1008.5
20260507073525 38 241 3.0 8.0 0.00 0.00 0.00 64 1008.5
20260507073150 38 241 3.0 8.0 0.00 0.00 0.00 65 1008.5
20260507072525 38 239 0.0 8.0 0.00 0.00 0.00 64 1008.6
20260507071650 38 229 1.0 8.0 0.00 0.00 0.00 64 1008.6
20260507071527 38 243 0.0 8.0 0.00 0.00 0.00 64 1008.6
20260507070526 38 243 0.0 8.0 0.00 0.00 0.00 63 1008.9
20260507070149 38 243 3.0 8.0 0.00 0.00 0.00 63 1008.9
20260507064649 38 246 0.0 7.0 0.00 0.00 0.00 63 1008.9
20260507064526 38 247 4.0 7.0 0.00 0.00 0.00 63 1008.9
20260507063149 38 246 0.0 7.0 0.00 0.00 0.00 64 1009.0
20260507061648 38 247 0.0 7.0 0.00 0.00 0.00 62 1009.1
20260507061525 38 247 6.0 7.0 0.00 0.00 0.00 63 1009.1
20260507060530 38 247 6.0 7.0 0.00 0.00 0.00 63 1009.2
20260507060149 38 241 0.0 7.0 0.00 0.00 0.00 64 1009.2
20260507055527 38 241 5.0 8.0 0.00 0.00 0.00 64 1009.4
20260507054648 38 243 0.0 8.0 0.00 0.00 0.00 63 1009.4
20260507054526 38 241 0.0 8.0 0.00 0.00 0.00 63 1009.4
20260507053527 38 244 0.0 8.0 0.00 0.00 0.00 62 1009.5
20260507053148 38 243 0.0 8.0 0.00 0.00 0.00 63 1009.5
20260507051649 38 241 0.0 8.0 0.00 0.00 0.00 61 1009.6
20260507051526 38 241 0.0 8.0 0.00 0.00 0.00 61 1009.6
20260507050526 38 241 0.0 8.0 0.00 0.00 0.00 62 1009.8
20260507050149 38 241 0.0 8.0 0.00 0.00 0.00 62 1009.8
20260507044648 39 239 0.0 3.0 0.00 0.00 0.00 62 1009.8
20260507044525 39 239 3.0 3.0 0.00 0.00 0.00 62 1009.8
20260507043526 39 234 0.0 3.0 0.00 0.00 0.00 62 1009.8
20260507043150 39 234 0.0 3.0 0.00 0.00 0.00 62 1009.8
20260507042527 39 240 0.0 3.0 0.00 0.00 0.00 62 1009.8
20260507041649 39 240 0.0 3.0 0.00 0.00 0.00 62 1009.8
20260507041527 39 251 0.0 3.0 0.00 0.00 0.00 62 1009.8
20260507040526 39 247 0.0 3.0 0.00 0.00 0.00 60 1009.9
20260507040149 39 247 0.0 3.0 0.00 0.00 0.00 60 1009.9
20260507034649 39 248 0.0 5.0 0.00 0.00 0.00 60 1009.9
20260507034525 39 248 0.0 5.0 0.00 0.00 0.00 60 1009.9
20260507033525 39 248 0.0 5.0 0.00 0.00 0.00 60 1009.9
20260507033149 40 248 0.0 5.0 0.00 0.00 0.00 59 1009.9
20260507032526 40 248 0.0 5.0 0.00 0.00 0.00 59 1009.9
20260507031649 40 243 0.0 5.0 0.00 0.00 0.00 58 1009.9
20260507031526 40 243 2.0 5.0 0.00 0.00 0.00 57 1009.9
20260507030526 40 244 0.0 5.0 0.00 0.00 0.00 58 1010.2
20260507030149 40 244 0.0 5.0 0.00 0.00 0.00 57 1010.2
20260507024648 40 246 0.0 8.0 0.00 0.00 0.00 57 1010.1
20260507024525 40 246 0.0 8.0 0.00 0.00 0.00 56 1010.1
20260507023527 40 247 0.0 8.0 0.00 0.00 0.00 57 1010.1
20260507023149 40 247 0.0 8.0 0.00 0.00 0.00 56 1010.1
20260507022525 40 247 0.0 8.0 0.00 0.00 0.00 57 1010.1
20260507021649 40 247 0.0 8.0 0.00 0.00 0.00 55 1010.1
20260507021526 40 247 0.0 8.0 0.00 0.00 0.00 55 1010.1
20260507020525 40 248 0.0 8.0 0.00 0.00 0.00 54 1010.2
20260507020149 40 248 0.0 8.0 0.00 0.00 0.00 55 1010.2
20260507015527 40 241 0.0 6.0 0.00 0.00 0.00 55 1010.2
20260507014649 40 240 0.0 6.0 0.00 0.00 0.00 55 1010.2
20260507014525 40 240 0.0 6.0 0.00 0.00 0.00 54 1010.2
20260507013526 40 239 5.0 6.0 0.00 0.00 0.00 54 1010.1
20260507013149 40 226 0.0 6.0 0.00 0.00 0.00 54 1010.1
20260507011648 40 246 0.0 6.0 0.00 0.00 0.00 53 1010.0
20260507010526 40 246 0.0 6.0 0.00 0.00 0.00 52 1010.0
20260507010148 40 246 0.0 6.0 0.00 0.00 0.00 53 1010.0
20260507005526 40 246 0.0 10.0 0.00 0.00 0.00 52 1010.0
20260507004649 40 246 0.0 10.0 0.00 0.00 0.00 52 1010.0
20260507004526 40 246 0.0 10.0 0.00 0.00 0.00 54 1010.0
20260507003528 40 243 1.0 10.0 0.00 0.00 0.00 53 1009.9
20260507003148 40 244 0.0 10.0 0.00 0.00 0.00 52 1009.9
20260507001648 40 232 0.0 10.0 0.00 0.00 0.00 51 1010.0
20260507001525 40 232 0.0 10.0 0.00 0.00 0.00 51 1010.0
20260507000526 40 246 0.0 10.0 0.00 0.00 0.00 51 1010.1
20260507000148 40 246 0.0 10.0 0.00 0.00 0.00 51 1010.1
20260506234649 40 241 0.0 13.0 0.00 0.00 0.00 51 1010.1
20260506233526 40 251 0.0 13.0 0.00 0.00 0.00 51 1010.2
20260506233148 40 254 6.0 13.0 0.00 0.00 0.00 52 1010.2
20260506232526 40 319 0.0 13.0 0.00 0.00 0.00 51 1010.2
20260506231647 40 243 0.0 13.0 0.00 0.00 0.00 52 1010.2
20260506231525 40 243 0.0 13.0 0.00 0.00 0.00 51 1010.2
20260506230526 41 258 5.0 13.0 0.00 0.00 0.00 50 1010.2
20260506230148 41 333 0.0 13.0 0.00 0.00 0.00 50 1010.2
20260506225525 41 353 2.0 16.0 0.00 0.00 0.00 51 1010.2
20260506224648 41 263 4.0 16.0 0.00 0.00 0.00 51 1010.2
20260506224525 41 244 13.0 16.0 0.00 0.00 0.00 51 1010.2
20260506223525 41 248 4.0 16.0 0.00 0.00 0.00 51 1010.1
20260506223149 41 247 6.0 16.0 0.00 0.00 0.00 50 1010.1
20260506222527 41 257 0.0 16.0 0.00 0.00 0.00 49 1010.0
20260506221648 41 244 0.0 16.0 0.00 0.00 0.00 49 1010.0
20260506221525 41 253 0.0 16.0 0.00 0.00 0.00 49 1010.0
20260506220525 41 246 7.0 16.0 0.00 0.00 0.00 49 1009.9
20260506220149 41 229 6.0 16.0 0.00 0.00 0.00 49 1009.9
20260506215524 41 243 4.0 13.0 0.00 0.00 0.00 49 1009.8
20260506214649 42 268 0.0 13.0 0.00 0.00 0.00 49 1009.8
20260506214526 42 42 2.0 13.0 0.00 0.00 0.00 49 1009.8
20260506213147 42 246 7.0 13.0 0.00 0.00 0.00 48 1009.7
20260506211649 42 240 7.0 13.0 0.00 0.00 0.00 47 1009.5
20260506211525 42 260 9.0 13.0 0.00 0.00 0.00 46 1009.5
20260506210525 42 248 6.0 13.0 0.00 0.00 0.00 47 1009.6
20260506210148 42 247 3.0 13.0 0.00 0.00 0.00 46 1009.6
20260506205526 43 246 12.0 14.0 0.00 0.00 0.00 46 1009.6
20260506204647 43 349 0.0 14.0 0.00 0.00 0.00 44 1009.6
20260506204525 43 244 0.0 14.0 0.00 0.00 0.00 44 1009.6
20260506203525 43 243 5.0 14.0 0.00 0.00 0.00 44 1009.5
20260506203148 43 343 0.0 14.0 0.00 0.00 0.00 45 1009.5